Helicity
76 103 128 123 122 106 118 165 150 130 104 153 171 148 103 141 95 69 45 76 93 117
81 78 133 101 127 152 190 228 173 131 115 109 112 77 100 89 111 151 119 96 78 109
173 282 194 193 211 183 127 80 115 99 74 89 113 91 95 110 109 118 99 93 72 81
212 233 244 232 175 198 195 173 144 101 184 147 141 168 96 94 101 82 63 85 41 -8
152 172 208 174 172 138 86 76 67 71 49 76 110 162 135 143 175 132 89 79 115 128
117 99 89 86 72 76 69 77 73 72 80 79 82 94 94 100 101 117 113 111 105 102
67 57 54 49 59 59 62 69 75 74 76 80 82 96 94 94 105 115 113 118 122 132
41 49 53 61 59 52 53 49 48 60 69 79 78 89 102 99 103 116 129 138 142 145
37 51 50 46 51 56 60 57 61 77 82 97 86 136 136 111 96 100 105 113 122 124
14 17 19 19 33 47 47 43 50 47 54 68 74 123 118 122 83 85 90 95 101 108
27 27 33 36 38 40 47 57 58 60 51 48 43 90 109 111 74 85 98 84 91 81
17 27 37 50 51 49 46 43 55 54 66 58 56 91 83 64 29 12 -2 -23 -29 -7
20 35 39 36 40 26 20 7 -5 -12 -16 5 21 43 56 48 30 60 68 70 51 35
29 23 19 8 0 -6 -7 -3 6 5 0 17 46 62 98 115 89 103 95 95 103 100
Wind_Speed
50 54 54 50 52 52 46 42 34 33 30 31 25 30 19 42 53 39 31 35 35 42
51 45 40 41 37 37 36 28 21 26 30 30 29 24 21 24 29 36 43 45 45 50
22 12 12 14 13 15 19 27 29 31 30 34 38 39 37 39 40 48 50 51 52 53
6 9 10 12 15 17 18 20 24 25 26 27 29 35 43 47 49 54 44 42 34 25
17 20 16 15 14 16 20 22 22 24 26 26 26 29 33 36 36 45 43 40 40 46
15 16 17 15 16 19 19 17 21 22 26 30 33 34 35 36 37 40 43 48 52 54
15 7 8 10 14 17 21 25 28 29 32 35 37 40 43 45 46 47 48 51 53 56
11 14 16 19 23 24 25 29 32 35 38 40 42 47 50 51 52 53 56 57 59 60
19 24 24 23 26 29 32 34 37 41 44 47 48 53 54 55 56 58 61 64 66 68
22 24 27 29 31 35 38 41 43 46 48 51 52 57 58 61 60 62 64 67 71 74
28 30 32 35 37 40 44 46 48 50 52 52 54 59 64 67 65 65 67 69 74 77
33 35 38 41 43 46 47 49 52 54 57 58 60 65 69 71 70 70 72 75 76 81
37 39 42 44 47 48 49 50 51 55 55 57 63 67 70 73 73 78 80 79 81 80
39 40 42 44 46 48 50 51 55 58 59 61 65 69 72 76 76 78 82 84 87 85
Wind_Direction
268 269 270 271 273 277 278 284 287 284 289 289 254 277 267 271 268 278 283 284 289 290
274 271 269 272 274 276 282 282 282 286 288 285 284 283 289 283 284 286 287 290 293 296
306 302 293 304 292 291 290 285 290 285 295 289 284 283 284 287 291 287 288 292 297 302
329 344 347 4 351 340 325 320 320 312 322 317 309 295 287 287 289 287 300 306 305 303
30 29 24 15 351 328 344 342 335 334 341 338 329 310 300 298 309 296 312 320 321 317
20 11 9 356 346 351 344 320 325 316 320 324 340 348 338 336 332 327 323 319 318 317
18 350 342 328 334 327 332 331 333 321 321 323 322 327 325 325 326 327 327 327 325 322
325 323 318 325 328 318 317 321 322 327 328 330 331 329 327 329 331 330 328 327 326 325
322 333 321 306 313 317 317 319 324 326 327 329 333 332 334 337 335 333 331 328 326 324
305 310 312 315 321 322 324 327 335 340 342 341 342 339 339 337 336 334 333 331 328 326
311 317 321 326 329 333 336 337 340 342 345 346 345 341 338 336 337 336 334 332 329 327
319 330 333 334 336 339 340 341 341 342 341 342 341 339 338 338 337 336 334 332 332 329
336 337 338 338 338 343 347 347 348 346 346 345 341 341 341 341 338 335 334 334 333 332
346 351 350 350 349 347 347 347 345 344 344 344 344 341 341 340 340 338 335 334 333 333